Location: Newark
(37.7892°N, 97.1083°W)
Time: 18:06:34
(UTC+00:00)

Starlink Launch 2 leader - Visible Passes

Search period start: 14 December 2019 00:00
Search period end: 24 December 2019 00:00
Orbit: 279 x 281 km, 53.0° (Epoch: 13 November)

Date Brightness Start Highest point End Pass type
(mag) Time Alt. Az. Time Alt. Az. Time Alt. Az.
19 Dec 5.1 00:38:20 10° SSE 00:38:32 11° SSE 00:38:32 11° SSE visible
20 Dec 3.8 00:39:21 10° SSW 00:40:55 26° SSE 00:40:55 26° SSE visible
21 Dec 2.4 00:41:00 10° SW 00:43:13 69° SSW 00:43:13 69° SSW visible
22 Dec 3.3 00:43:04 10° WSW 00:45:24 38° NW 00:45:25 38° NW visible
23 Dec 4.4 00:45:30 10° W 00:47:25 20° NNW 00:47:33 19° NNW visible
